Location: Mascot Post Office (historical)
(40.2645°N, 99.5462°W)
Time: 17:23:36
(UTC+00:00)

Cosmos 864 Rocket - Pass Details

Date: 14 July 2020
Orbit: 954 x 991 km, 82.9° (Epoch: 05 August)

Event Time Altitude Azimuth Distance (km) Brightness Sun altitude
Exits shadow 05:34:44 56° 204° (SSW) 1,158 4.6 -26.1°
Maximum altitude 05:36:09 79° 277° (W) 1,005 4.5 -26.1°
Drops below altitude 10° 05:42:29 10° 5° (N) 2,755 7.7 -26.5°
Sets 05:45:02 0° 7° (N) 3,711 8.6 -26.6°
